This demonstration page uses our WeatherBlox Daily Observations layout. Learn more.

Left ArrowRight Arrow

Hourly Observations for October 3, 2022

Temp ( °F °C ) Dew Point ( °F °C ) Humidity (%) Winds ( mph kmh ) Pressure ( in mb ) Visibility ( mi km ) Precip ( " mm )
12:53 am 00:53 Clear 65 18.3 51 10.6 61 61 Calm 29.95 1014 10 16 0.00 0.00
1:53 am 01:53 Clear 63 17.2 51 10.6 65 65 Calm 29.95 1014 10 16 0.00 0.00
2:53 am 02:53 Clear 62 16.7 51 10.6 67 67 Calm 29.96 1014 10 16 0.00 0.00
3:53 am 03:53 Clear 60 15.6 50 10 69 69 Calm 29.95 1014 10 16 0.00 0.00
4:53 am 04:53 Clear 58 14.4 50 10 75 75 Calm 29.96 1015 10 16 0.00 0.00
5:53 am 05:53 Clear 59 15 50 10 72 72 Calm 29.97 1015 10 16 0.00 0.00
6:53 am 06:53 Clear 57 13.9 49 9.4 74 74 Calm 29.99 1016 10 16 0.00 0.00
7:53 am 07:53 Sunny 58 14.4 50 10 75 75 Calm 30.01 1016 10 16 0.00 0.00
8:53 am 08:53 Sunny 63 17.2 50 10 63 63 Calm 30.01 1016 10 16 0.00 0.00
9:53 am 09:53 Sunny 69 20.6 50 10 51 51 Calm 30.01 1016 10 16 0.00 0.00
10:53 am 10:53 Sunny 75 23.9 49 9.4 40 40 Calm 30.00 1016 10 16 0.00 0.00
11:53 am 11:53 Sunny 79 26.1 48 8.9 34 34 SSW 6 9 29.99 1016 10 16 0.00 0.00
12:53 pm 12:53 Sunny 83 28.3 48 8.9 30 30 Calm 29.97 1015 10 16 0.00 0.00
1:53 pm 13:53 Sunny 87 30.6 47 8.3 25 25 S 5 7 29.94 1014 10 16 0.00 0.00
2:53 pm 14:53 Sunny 89 31.7 47 8.3 23 23 VRB 5 7 29.91 1013 10 16 0.00 0.00
3:53 pm 15:53 Sunny 91 32.8 44 6.7 20 20 VRB 3 6 29.90 1012 10 16 0.00 0.00
4:53 pm 16:53 Sunny 92 33.3 46 7.8 21 21 SSE 7 11 29.89 1012 10 16 0.00 0.00
5:53 pm 17:53 Sunny 91 32.8 46 7.8 21 21 S 7 11 29.89 1012 10 16 0.00 0.00
6:53 pm 18:53 Clear 84 28.9 48 8.9 29 29 S 7 11 29.90 1012 10 16 0.00 0.00
7:53 pm 19:53 Clear 79 26.1 51 10.6 38 38 SE 7 11 29.91 1013 10 16 0.00 0.00
8:53 pm 20:53 Clear 77 25 51 10.6 40 40 Calm 29.92 1013 10 16 0.00 0.00
9:53 pm 21:53 Clear 73 22.8 51 10.6 46 46 Calm 29.93 1014 10 16 0.00 0.00
10:53 pm 22:53 Clear 71 21.7 51 10.6 49 49 NNE 5 7 29.94 1014 10 16 0.00 0.00
11:53 pm 23:53 Clear 68 20 51 10.6 55 55 Calm 29.95 1014 10 16 0.00 0.00

Powered by AerisWeather